Orbital Elements at Epoch 2459200.5 (2020-Dec-17.0) TDB
Reference: JPL 20 (heliocentric ecliptic J2000)
Element | Value | Uncertainty (1-sigma) | Units |
e | .2273220038027954 | 6.6119e-08 | |
a | 2.636860830696993 | 2.1496e-08 | au |
q | 2.037444342913849 | 1.7861e-07 | au |
i | 2.534634690594793 | 4.6643e-06 | deg |
node | 254.193850380998 | 0.00016726 | deg |
peri | 84.44530803559111 | 0.00016747 | deg |
M | 257.8616168018844 | 1.5336e-05 | deg |
tp | 2459644.226860001259 (2022-Mar-05.72686000) | 7.0385e-05 | TDB |
period | 1563.972960983785 4.28 | 1.9124e-05 5.236e-08 | d yr |
n | .2301830076228104 | 2.8147e-09 | deg/d |
Q | 3.236277318480137 | 2.6382e-08 | au |
|
| | Orbit Determination Parameters
Additional Information
|